Location: Bothwell
(42.3833°S, 147.0000°E)
Time: 01:06:51
(UTC+10:00)

PRISM - Visible Passes

Search period start: 01 October 2022 23:00
Search period end: 12 October 2022 00:00
Orbit: 555 x 574 km, 98.2° (Epoch: 30 September)

Date Brightness Start Highest point End Pass type
(mag) Time Alt. Az. Time Alt. Az. Time Alt. Az.
02 Oct ? 05:25:12 10° NNE 05:29:06 51° ESE 05:33:04 10° S visible
02 Oct ? 20:15:30 10° SW 20:16:37 11° WSW 20:17:44 10° WSW visible
03 Oct ? 05:25:25 10° NNE 05:29:18 51° ESE 05:33:16 10° S visible
03 Oct ? 20:15:41 10° SW 20:16:49 11° WSW 20:17:56 10° WSW visible
04 Oct ? 05:25:36 10° NNE 05:29:29 51° ESE 05:33:27 10° S visible
04 Oct ? 20:15:50 10° SW 20:17:00 11° WSW 20:18:09 10° WSW visible
05 Oct ? 05:25:46 10° NNE 05:29:40 51° ESE 05:33:38 10° S visible
05 Oct ? 20:15:59 10° SW 20:17:10 11° WSW 20:18:21 10° WSW visible
06 Oct ? 05:25:56 10° NNE 05:29:49 50° ESE 05:33:47 10° S visible
06 Oct ? 20:16:07 10° SW 20:17:19 11° WSW 20:18:31 10° WSW visible
07 Oct ? 05:26:04 10° NNE 05:29:58 50° ESE 05:33:56 10° S visible
07 Oct ? 20:16:13 10° SW 20:17:27 11° WSW 20:18:41 10° WSW visible
08 Oct ? 05:26:12 10° NNE 05:30:06 50° ESE 05:34:04 10° S visible
08 Oct ? 20:16:19 10° SW 20:17:35 11° WSW 20:18:50 10° WSW visible
09 Oct ? 05:26:18 10° NNE 05:30:12 50° ESE 05:34:11 10° S visible
09 Oct ? 20:16:23 10° SW 20:17:41 11° WSW 20:18:58 10° W visible
10 Oct ? 05:26:24 10° NNE 05:30:18 49° ESE 05:34:16 10° S visible
10 Oct ? 20:16:27 10° SW 20:17:46 11° WSW 20:19:05 10° W visible
11 Oct ? 05:26:29 10° NNE 05:30:23 49° ESE 05:34:21 10° S visible
11 Oct ? 20:16:30 10° SW 20:17:51 11° WSW 20:19:12 10° W visible
